EW9394 Weather Reports


Display with metric or nautical units.
time (UTC)temp
F
wind
direction
speed
MPH
gust
MPH
rain 1hr
in
rain 24hr
in
rain mn
in
humidity
%
barometer
mb
20260506131649 54 334 2.0 3.0 0.00 0.00 0.00 86 1015.1
20260506131145 54 345 3.0 5.0 0.00 0.00 0.00 86 1014.7
20260506130642 54 327 2.0 3.0 0.00 0.00 0.00 86 1015.0
20260506130139 54 11 3.0 5.0 0.00 0.00 0.00 86 1014.9
20260506125637 54 268 3.0 3.0 0.00 0.00 0.00 86 1015.0
20260506125135 54 14 3.0 6.0 0.00 0.00 0.00 86 1014.8
20260506124633 54 223 2.0 5.0 0.00 0.00 0.00 86 1014.6
20260506124131 54 300 4.0 7.0 0.00 0.00 0.00 85 1014.1
20260506123628 54 339 1.0 2.0 0.00 0.00 0.00 85 1014.4
20260506123127 55 291 7.0 9.0 0.00 0.00 0.00 84 1014.4
20260506122623 55 355 7.0 9.0 0.00 0.00 0.00 84 1014.5
20260506122120 55 353 2.0 3.0 0.00 0.00 0.00 83 1014.3
20260506121618 55 265 4.0 5.0 0.00 0.00 0.00 83 1014.4
20260506121114 55 352 4.0 7.0 0.00 0.00 0.00 83 1014.3
20260506120612 55 310 3.0 5.0 0.00 0.00 0.00 83 1014.1
20260506120109 55 330 4.0 7.0 0.00 0.00 0.00 83 1014.1
20260506115608 55 275 2.0 2.0 0.00 0.00 0.00 82 1014.0
20260506115106 55 321 5.0 6.0 0.00 0.00 0.00 82 1013.8
20260506114602 56 267 3.0 5.0 0.00 0.00 0.00 81 1013.9
20260506114101 56 337 3.0 5.0 0.00 0.00 0.00 81 1013.5
20260506113558 55 330 3.0 3.0 0.00 0.00 0.00 81 1013.5
20260506113055 55 288 2.0 2.0 0.00 0.00 0.00 81 1013.3
20260506112552 55 8 4.0 6.0 0.00 0.00 0.00 80 1013.6
20260506112049 56 341 5.0 6.0 0.00 0.00 0.00 80 1013.5
20260506111547 56 277 4.0 6.0 0.00 0.00 0.00 80 1013.3
20260506111044 56 317 7.0 9.0 0.00 0.00 0.00 80 1013.3
20260506110542 56 281 7.0 9.0 0.00 0.00 0.00 79 1013.2
20260506110039 56 287 4.0 5.0 0.00 0.00 0.00 79 1013.1
20260506105535 56 339 3.0 3.0 0.00 0.00 0.00 79 1013.1
20260506105032 57 357 3.0 5.0 0.00 0.00 0.00 79 1012.9
20260506104530 57 306 4.0 6.0 0.00 0.00 0.00 79 1012.9
20260506104028 57 263 3.0 3.0 0.00 0.00 0.00 79 1012.7
20260506103525 57 304 4.0 6.0 0.00 0.00 0.00 78 1012.7
20260506103022 58 335 3.0 6.0 0.00 0.00 0.00 77 1012.4
20260506102520 58 341 3.0 5.0 0.00 0.00 0.00 77 1012.3
20260506102017 58 311 4.0 5.0 0.00 0.00 0.00 77 1012.3
20260506101513 58 290 5.0 7.0 0.00 0.00 0.00 76 1012.0
20260506101011 58 352 3.0 3.0 0.00 0.00 0.00 77 1011.9
20260506100509 58 283 2.0 3.0 0.00 0.00 0.00 77 1012.0
20260506100007 59 309 1.0 1.0 0.00 0.00 0.00 77 1012.1
20260506095505 59 330 4.0 7.0 0.00 0.00 0.00 77 1012.1
20260506095000 59 328 2.0 2.0 0.00 0.00 0.00 77 1012.2
20260506094459 58 264 0.0 0.0 0.00 0.00 0.00 78 1012.0
20260506093956 59 310 3.0 3.0 0.00 0.00 0.00 78 1011.9
20260506093455 59 11 2.0 2.0 0.00 0.00 0.00 77 1012.0
20260506092952 59 275 0.0 0.0 0.00 0.00 0.00 78 1011.9
20260506092450 58 269 0.0 1.0 0.00 0.00 0.00 78 1012.1
20260506091946 59 358 2.0 3.0 0.00 0.00 0.00 78 1011.9
20260506091444 59 310 1.0 2.0 0.00 0.00 0.00 78 1011.9
20260506090941 59 310 2.0 2.0 0.00 0.00 0.00 78 1011.8
20260506090439 59 315 1.0 2.0 0.00 0.00 0.00 78 1011.7
20260506085935 59 324 4.0 5.0 0.00 0.00 0.00 78 1011.9
20260506085432 59 301 0.0 1.0 0.00 0.00 0.00 78 1011.5
20260506084928 59 36 1.0 1.0 0.00 0.00 0.00 78 1011.4
20260506084426 59 338 2.0 3.0 0.00 0.00 0.00 78 1011.5
20260506083921 59 270 3.0 5.0 0.00 0.00 0.00 78 1011.4
20260506083419 59 329 1.0 1.0 0.00 0.00 0.00 78 1011.3
20260506082916 59 282 1.0 1.0 0.00 0.00 0.00 78 1011.4
20260506082413 60 326 2.0 2.0 0.00 0.00 0.00 78 1011.1
20260506081908 60 25 0.0 1.0 0.00 0.00 0.00 78 1011.0
20260506081408 60 285 0.0 0.0 0.00 0.00 0.00 79 1011.0
20260506080904 60 324 1.0 1.0 0.00 0.00 0.00 79 1011.1
20260506080401 60 307 1.0 2.0 0.00 0.00 0.00 79 1011.1
20260506073345 60 314 2.0 3.0 0.00 0.00 0.00 79 1011.3
20260506072841 61 288 3.0 3.0 0.00 0.00 0.00 79 1011.3
20260506072339 61 276 3.0 3.0 0.00 0.00 0.00 79 1011.2
20260506071837 61 3 1.0 3.0 0.00 0.00 0.00 79 1011.2
20260506071335 60 341 2.0 2.0 0.00 0.00 0.00 79 1011.3
20260506070831 61 278 4.0 7.0 0.00 0.00 0.00 79 1011.5
20260506070328 61 2 3.0 3.0 0.00 0.00 0.00 80 1011.1
20260506062306 62 294 2.0 3.0 0.00 0.00 0.00 80 1011.1
20260506061801 62 312 1.0 1.0 0.00 0.00 0.00 79 1011.3
20260506061259 62 320 2.0 3.0 0.00 0.00 0.00 80 1011.3
20260506060757 62 301 5.0 6.0 0.00 0.00 0.00 80 1011.1
20260506060254 62 300 2.0 2.0 0.00 0.00 0.00 80 1011.1
20260506051226 64 306 4.0 6.0 0.00 0.00 0.00 80 1011.0
20260506050724 64 336 1.0 3.0 0.00 0.00 0.00 80 1010.6
20260506050221 64 359 1.0 3.0 0.00 0.00 0.00 80 1010.8
20260506044712 65 42 3.0 5.0 0.00 0.00 0.00 79 1010.8
20260506044209 65 299 4.0 5.0 0.00 0.00 0.00 79 1011.1
20260506043706 65 285 3.0 5.0 0.00 0.00 0.00 79 1010.8
20260506043204 66 359 5.0 7.0 0.00 0.00 0.00 79 1010.5
20260506042703 66 300 5.0 7.0 0.00 0.00 0.00 79 1010.6
20260506042201 66 276 3.0 3.0 0.00 0.00 0.00 79 1010.5
20260506041659 66 355 5.0 7.0 0.00 0.00 0.00 79 1010.4
20260506041155 67 333 4.0 6.0 0.00 0.00 0.00 79 1010.3
20260506040647 67 261 1.0 1.0 0.00 0.00 0.00 78 1010.1
20260506040144 68 354 4.0 5.0 0.00 0.00 0.00 78 1010.2
20260506035641 68 309 2.0 3.0 0.00 0.00 0.00 78 1010.1
20260506035137 69 4 4.0 6.0 0.00 0.00 0.00 78 1010.0
20260506034634 69 292 5.0 8.0 0.00 0.00 0.00 77 1010.0
20260506034131 69 278 3.0 3.0 0.00 0.00 0.00 77 1010.1
20260506033629 70 324 5.0 6.0 0.00 0.00 0.00 77 1009.7
20260506033126 70 307 3.0 3.0 0.00 0.00 0.00 77 1009.9
20260506032623 70 314 2.0 2.0 0.00 0.00 0.00 77 1010.0
20260506032120 70 296 2.0 2.0 0.00 0.00 0.00 77 1009.4
20260506031617 71 343 1.0 2.0 0.00 0.00 0.00 77 1009.4
20260506031114 71 282 3.0 5.0 0.00 0.00 0.00 76 1009.6
20260506030612 71 288 1.0 2.0 0.00 0.00 0.00 76 1009.6
20260506030109 71 2 3.0 5.0 0.00 0.00 0.00 76 1009.5
20260506025606 71 30 3.0 5.0 0.00 0.00 0.00 76 1009.3
20260506025102 72 358 4.0 6.0 0.00 0.00 0.00 76 1009.1
20260506024559 72 347 5.0 6.0 0.00 0.00 0.00 75 1009.0
20260506024056 74 358 5.0 9.0 0.00 0.00 0.00 73 1008.9
20260506023551 74 276 3.0 5.0 0.00 0.00 0.00 72 1008.2
20260506023049 74 23 3.0 5.0 0.00 0.00 0.00 72 1008.4
20260506022547 74 332 2.0 2.0 0.00 0.00 0.00 72 1008.2
20260506022044 74 348 5.0 6.0 0.00 0.00 0.00 72 1007.8
20260506021541 74 263 4.0 5.0 0.00 0.00 0.00 72 1008.0
20260506021039 74 261 1.0 1.0 0.00 0.00 0.00 71 1007.7
20260506020536 74 276 2.0 3.0 0.00 0.00 0.00 71 1007.5
20260506020033 75 291 2.0 2.0 0.00 0.00 0.00 71 1007.8
20260506015531 75 283 2.0 3.0 0.00 0.00 0.00 70 1007.5
20260506015027 75 354 3.0 5.0 0.00 0.00 0.00 70 1008.0
20260506014525 75 340 2.0 5.0 0.00 0.00 0.00 69 1007.7
20260506014021 75 286 1.0 2.0 0.00 0.00 0.00 69 1007.2
20260506013519 75 279 3.0 3.0 0.00 0.00 0.00 68 1007.1
20260506013015 76 348 4.0 5.0 0.00 0.00 0.00 70 1007.3
20260506012511 76 290 2.0 2.0 0.00 0.00 0.00 70 1007.4
20260506012009 77 312 5.0 7.0 0.00 0.00 0.00 70 1007.7
20260506011506 78 59 2.0 2.0 0.00 0.00 0.00 69 1007.4
20260506011002 78 11 3.0 5.0 0.00 0.00 0.00 68 1006.9
20260506010502 79 309 3.0 3.0 0.00 0.00 0.00 68 1007.1
20260506005957 79 331 3.0 6.0 0.00 0.00 0.00 67 1006.8
20260506005455 79 352 2.0 2.0 0.00 0.00 0.00 67 1006.8
20260506004950 79 280 1.0 2.0 0.00 0.00 0.00 67 1006.8
20260506004448 80 264 1.0 1.0 0.00 0.00 0.00 66 1006.6
20260506003944 80 298 2.0 2.0 0.00 0.00 0.00 66 1006.8
20260506003441 80 318 1.0 2.0 0.00 0.00 0.00 66 1006.8
20260506002937 81 283 1.0 2.0 0.00 0.00 0.00 65 1006.6
20260506002433 82 306 3.0 3.0 0.00 0.00 0.00 64 1006.5
20260506001929 82 340 4.0 5.0 0.00 0.00 0.00 64 1006.7
20260506001426 82 258 3.0 3.0 0.00 0.00 0.00 64 1007.0
20260506000923 83 8 3.0 5.0 0.00 0.00 0.00 62 1006.5
20260506000423 84 266 1.0 3.0 0.00 0.00 0.00 61 1006.5
20260505235917 84 8 3.0 3.0 0.00 0.00 0.00 58 1006.1
20260505235415 84 5 4.0 5.0 0.00 0.00 0.00 56 1006.0
20260505234912 84 235 2.0 2.0 0.00 0.00 0.00 59 1006.1
20260505234410 84 276 3.0 5.0 0.00 0.00 0.00 73 1006.1
20260505233906 85 279 4.0 7.0 0.00 0.00 0.00 72 1005.4
20260505233404 85 191 1.0 2.0 0.00 0.00 0.00 71 1005.4
20260505232901 86 165 2.0 2.0 0.00 0.00 0.00 70 1005.6
20260505232359 86 194 3.0 5.0 0.00 0.00 0.00 70 1005.2
20260505231855 87 175 3.0 5.0 0.00 0.00 0.00 68 1005.3
20260505231353 87 192 1.0 2.0 0.00 0.00 0.00 67 1005.5
20260505230851 87 194 3.0 3.0 0.00 0.00 0.00 67 1005.2
20260505230348 87 152 2.0 2.0 0.00 0.00 0.00 68 1005.3
20260505225844 87 198 1.0 1.0 0.00 0.00 0.00 68 1005.1
20260505225342 87 148 3.0 5.0 0.00 0.00 0.00 67 1005.1
20260505224837 87 211 2.0 2.0 0.00 0.00 0.00 67 1005.1
20260505224335 87 170 3.0 3.0 0.00 0.00 0.00 66 1005.0
20260505223832 87 192 1.0 2.0 0.00 0.00 0.00 66 1005.4
20260505223329 89 209 1.0 2.0 0.00 0.00 0.00 64 1004.8
20260505222824 89 191 4.0 6.0 0.00 0.00 0.00 63 1004.8
20260505222321 89 202 4.0 6.0 0.00 0.00 0.00 62 1005.1
20260505221818 90 194 1.0 1.0 0.00 0.00 0.00 60 1005.1
20260505221315 90 190 1.0 1.0 0.00 0.00 0.00 59 1005.1
20260505220812 91 220 2.0 3.0 0.00 0.00 0.00 56 1005.1
20260505220309 91 235 1.0 1.0 0.00 0.00 0.00 54 1004.9
20260505215807 91 157 3.0 3.0 0.00 0.00 0.00 54 1005.0
20260505215305 91 170 3.0 3.0 0.00 0.00 0.00 53 1005.0
20260505214802 92 195 1.0 1.0 0.00 0.00 0.00 53 1004.8
20260505214259 92 215 3.0 6.0 0.00 0.00 0.00 54 1005.0
20260505213756 92 248 5.0 7.0 0.00 0.00 0.00 54 1005.2
20260505213254 92 261 4.0 6.0 0.00 0.00 0.00 54 1005.3
20260505212749 92 242 1.0 1.0 0.00 0.00 0.00 54 1005.2
20260505212247 91 186 2.0 2.0 0.00 0.00 0.00 54 1005.2
20260505211743 91 186 2.0 2.0 0.00 0.00 0.00 54 1005.4
20260505211241 90 268 2.0 2.0 0.00 0.00 0.00 55 1005.3
20260505210737 91 256 3.0 5.0 0.00 0.00 0.00 56 1005.2
20260505210234 91 209 1.0 2.0 0.00 0.00 0.00 56 1005.4
20260505205732 91 192 2.0 3.0 0.00 0.00 0.00 56 1005.4
20260505205230 91 281 2.0 3.0 0.00 0.00 0.00 57 1005.2
20260505204726 91 206 2.0 3.0 0.00 0.00 0.00 58 1005.5
20260505204224 90 165 2.0 2.0 0.00 0.00 0.00 58 1005.8
20260505203721 90 205 8.0 9.0 0.00 0.00 0.00 58 1006.0
20260505203218 90 174 3.0 3.0 0.00 0.00 0.00 59 1005.8
20260505202713 89 156 7.0 9.0 0.00 0.00 0.00 60 1005.9
20260505202210 89 197 2.0 3.0 0.00 0.00 0.00 63 1005.9
20260505201706 88 196 3.0 5.0 0.00 0.00 0.00 63 1006.0
20260505201204 87 183 2.0 3.0 0.00 0.00 0.00 63 1005.8
20260505200702 87 186 6.0 10.0 0.00 0.00 0.00 64 1006.2
20260505200159 88 192 1.0 2.0 0.00 0.00 0.00 63 1006.3
20260505195654 87 201 8.0 8.0 0.00 0.00 0.00 64 1006.1
20260505195152 87 180 4.0 5.0 0.00 0.00 0.00 64 1006.1
20260505194649 88 246 4.0 7.0 0.00 0.00 0.00 64 1006.2
20260505194145 88 187 2.0 3.0 0.00 0.00 0.00 64 1006.4
20260505193642 87 232 4.0 6.0 0.00 0.00 0.00 66 1006.3
20260505193139 86 203 1.0 2.0 0.00 0.00 0.00 68 1006.2
20260505192638 86 172 5.0 7.0 0.00 0.00 0.00 67 1006.3
20260505192135 86 169 7.0 13.0 0.00 0.00 0.00 67 1006.3
20260505191633 86 179 6.0 9.0 0.00 0.00 0.00 67 1006.2
20260505191131 86 183 3.0 3.0 0.00 0.00 0.00 68 1006.1
20260505190626 84 200 1.0 1.0 0.00 0.00 0.00 70 1006.3
20260505190121 84 160 5.0 8.0 0.00 0.00 0.00 69 1006.5
20260505185619 84 167 5.0 6.0 0.00 0.00 0.00 70 1006.2
20260505185115 84 160 7.0 11.0 0.00 0.00 0.00 69 1006.2
20260505184611 84 176 6.0 7.0 0.00 0.00 0.00 68 1006.4
20260505184108 84 146 7.0 9.0 0.00 0.00 0.00 68 1006.6
20260505183605 83 217 1.0 2.0 0.00 0.00 0.00 70 1006.5
20260505183103 83 223 3.0 6.0 0.00 0.00 0.00 69 1006.4
20260505182558 84 193 5.0 6.0 0.00 0.00 0.00 69 1006.6
20260505182055 83 173 5.0 7.0 0.00 0.00 0.00 69 1006.7
20260505181552 83 214 3.0 3.0 0.00 0.00 0.00 70 1006.5
20260505181049 83 237 1.0 2.0 0.00 0.00 0.00 70 1006.5
20260505180545 83 202 7.0 10.0 0.00 0.00 0.00 69 1006.6
20260505180044 83 158 8.0 10.0 0.00 0.00 0.00 70 1006.6
20260505175543 83 176 3.0 5.0 0.00 0.00 0.00 69 1006.6
20260505175040 82 195 4.0 6.0 0.00 0.00 0.00 71 1006.5
20260505174538 83 229 6.0 10.0 0.00 0.00 0.00 70 1006.6
20260505174033 83 206 5.0 7.0 0.00 0.00 0.00 70 1006.6
20260505173530 83 187 2.0 2.0 0.00 0.00 0.00 71 1006.6
20260505173027 83 183 8.0 10.0 0.00 0.00 0.00 70 1006.7
20260505172525 84 179 2.0 3.0 0.00 0.00 0.00 69 1006.7
20260505172021 83 160 5.0 6.0 0.00 0.00 0.00 70 1006.8
20260505171516 82 230 5.0 7.0 0.00 0.00 0.00 72 1006.5
20260505171014 82 215 3.0 3.0 0.00 0.00 0.00 72 1006.7
20260505170510 82 119 6.0 8.0 0.00 0.00 0.00 71 1006.9
20260505170006 82 205 0.0 1.0 0.00 0.00 0.00 72 1006.8
20260505165502 82 179 3.0 6.0 0.00 0.00 0.00 71 1006.8
20260505164957 82 209 2.0 2.0 0.00 0.00 0.00 73 1006.5
20260505164448 81 140 2.0 3.0 0.00 0.00 0.00 72 1006.7
20260505163946 82 196 3.0 5.0 0.00 0.00 0.00 72 1006.6
20260505163444 81 194 3.0 7.0 0.00 0.00 0.00 72 1006.5
20260505162944 81 196 3.0 5.0 0.00 0.00 0.00 72 1006.6
20260505162439 81 298 4.0 6.0 0.00 0.00 0.00 72 1006.6
20260505161936 81 180 3.0 6.0 0.00 0.00 0.00 73 1006.6
20260505161432 80 171 4.0 7.0 0.00 0.00 0.00 73 1006.5
20260505160930 80 192 3.0 3.0 0.00 0.00 0.00 75 1006.5
20260505160428 80 161 7.0 10.0 0.00 0.00 0.00 73 1006.5
20260505152904 78 154 4.0 6.0 0.00 0.00 0.00 78 1006.6
20260505152402 78 196 5.0 8.0 0.00 0.00 0.00 79 1006.5
20260505151901 78 217 1.0 2.0 0.00 0.00 0.00 79 1006.7
20260505151358 77 192 5.0 7.0 0.00 0.00 0.00 80 1006.8
20260505150855 77 216 4.0 6.0 0.00 0.00 0.00 80 1006.8
20260505150352 76 199 2.0 3.0 0.00 0.00 0.00 81 1006.5
20260505140317 73 179 4.0 7.0 0.00 0.00 0.00 86 1006.4